CAPE
7 5 9 9 5 7 4 4 7 5 4 5 4 4 4 4 2 1 0 0 0 0 0 0 0 0 0 0 1 0 9 11 12 58 8 35 116 141 177 140 159 185 66 100 23 65 50
7 4 5 7 7 7 5 9 4 6 7 7 5 5 4 4 3 1 0 0 0 0 0 0 0 0 0 0 0 4 3 3 14 20 6 16 28 117 58 69 138 92 81 42 72 32 96
5 6 3 8 3 9 9 6 8 9 8 6 6 3 2 4 3 2 1 0 0 0 0 0 0 0 0 0 0 0 0 6 3 1 13 11 0 26 17 26 134 123 83 38 79 63 16
10 9 5 2 4 9 9 9 10 9 8 7 8 3 2 2 2 1 1 0 0 0 0 0 0 0 0 0 0 0 0 4 16 13 35 14 12 26 12 28 149 155 120 21 11 84 12
11 7 7 7 8 7 5 7 7 7 6 6 9 2 1 3 3 0 0 0 0 0 0 0 0 0 0 0 0 0 0 5 0 15 63 51 45 41 38 101 47 109 129 51 26 24 13
9 10 6 3 6 4 6 8 6 7 8 8 8 2 2 2 1 1 0 0 0 0 0 0 0 0 0 0 0 0 0 0 27 8 48 58 56 28 22 99 155 104 86 48 75 8 1
13 9 9 6 4 7 7 10 7 8 6 7 10 4 2 1 1 0 0 0 0 0 0 0 0 0 0 0 0 0 0 0 23 57 32 32 29 38 9 6 28 25 1 34 45 18 0
11 7 8 7 6 6 9 7 5 3 1 2 6 9 3 0 0 0 0 0 0 0 0 0 0 0 0 0 0 0 0 2 7 46 27 22 30 7 2 4 11 11 8 48 64 10 0
10 10 5 0 0 2 5 3 2 0 0 0 3 6 3 0 0 0 0 0 0 0 0 0 0 0 0 0 0 0 0 0 2 2 0 16 3 6 7 20 15 9 40 44 22 5 0
3 4 1 0 0 0 1 1 1 0 1 0 1 6 1 0 0 0 0 0 0 0 0 0 0 0 0 0 0 0 0 0 0 0 0 1 4 4 14 8 7 16 10 51 21 42 19
5 1 1 0 0 0 0 2 1 2 0 0 0 4 0 0 0 0 0 0 0 0 0 0 0 0 0 0 0 0 0 0 0 0 0 0 0 4 13 6 5 4 0 0 53 99 87
22 20 18 19 18 11 2 0 6 3 0 0 0 2 0 0 0 0 0 0 0 0 0 0 0 0 0 0 0 0 0 0 0 0 0 0 0 0 0 0 0 0 0 2 14 109 91
34 41 42 43 33 28 20 12 2 2 0 0 0 0 0 0 0 0 0 0 0 24 0 0 0 0 0 0 0 0 0 0 0 0 0 0 0 0 0 0 0 0 6 173 175 196 72
7 6 8 13 20 24 28 24 12 4 0 0 0 0 0 0 0 0 0 0 0 0 0 0 0 0 0 0 0 0 0 0 0 0 0 0 0 0 0 0 3 0 21 98 86 59 38
3 2 3 6 6 27 15 28 30 10 0 0 0 0 0 0 0 0 0 0 0 0 0 0 0 0 0 0 0 0 0 0 0 0 0 0 0 0 0 0 0 9 1 0 0 1 38
7 7 5 5 6 1 5 9 17 26 2 0 0 0 0 0 0 0 0 0 0 0 0 0 0 0 0 0 0 0 0 0 0 0 0 0 0 0 0 0 0 0 0 25 30 62 43
8 8 6 8 12 10 2 1 3 5 14 0 0 0 0 0 0 0 0 0 0 0 0 0 0 0 0 0 0 0 0 0 0 0 0 0 0 0 0 0 0 0 0 0 0 0 17
11 19 17 19 13 11 11 8 0 0 7 0 0 0 0 0 0 0 0 0 0 0 0 0 0 0 0 0 0 0 0 0 0 0 0 0 0 0 0 0 0 0 0 0 6 4 0
6 11 16 15 10 10 16 16 9 0 6 10 5 0 0 0 0 0 0 0 0 0 0 0 0 0 0 0 0 0 0 0 0 0 0 0 0 0 0 0 0 0 0 0 0 0 0
11 7 10 10 12 13 22 23 22 1 5 4 14 0 0 0 0 0 0 0 0 0 0 0 0 0 0 0 0 0 0 0 0 0 0 0 0 0 0 0 0 0 0 0 0 0 0
8 13 13 11 13 16 28 18 19 18 4 10 42 9 0 0 0 0 0 0 0 0 0 0 0 0 0 0 0 0 0 0 0 0 0 0 0 0 0 0 0 0 0 0 0 0 0
11 14 11 18 14 10 25 34 27 35 18 41 53 28 11 0 0 0 0 0 0 0 0 0 0 0 0 0 0 0 0 0 0 0 0 0 0 0 0 0 0 0 0 0 0 0 0
9 10 10 16 20 15 19 23 29 35 39 32 4 9 9 21 25 18 0 0 0 0 0 0 0 0 0 0 0 0 0 0 0 0 0 0 0 0 0 0 0 0 0 0 0 0 0
15 15 15 16 20 20 15 24 27 34 37 70 48 30 26 21 37 22 21 11 0 0 0 0 0 0 0 0 0 0 0 0 0 0 0 0 0 0 0 0 0 0 0 0 0 0 0
12 13 17 18 16 21 16 25 32 29 41 58 55 52 60 18 39 22 20 21 6 2 0 0 0 0 0 0 0 0 0 0 0 0 0 0 0 0 0 0 0 0 0 0 0 0 0
16 16 19 21 21 25 37 27 34 30 29 64 72 98 70 35 11 21 20 24 39 23 13 7 0 0 0 0 0 0 0 0 0 0 0 0 0 0 0 0 0 0 0 0 0 0 0
29 29 26 29 31 42 56 44 30 35 45 78 76 72 92 18 10 10 5 19 23 18 52 35 0 0 0 0 0 0 0 0 0 0 0 0 0 0 0 0 0 0 0 0 0 0 0
26 24 25 28 25 29 44 50 48 71 65 123 94 78 88 24 8 13 1 8 15 6 31 14 0 1 0 0 0 0 0 0 0 0 0 0 0 0 0 0 0 0 0 0 0 0 0
35 30 28 30 31 28 40 56 62 67 79 100 62 100 137 81 10 9 13 16 6 1 16 12 13 1 1 4 0 0 0 0 0 0 0 0 0 0 0 0 0 0 0 0 0 0 0
CIN
-0 -0 -0 -0 -0 -0 -0 -0 -0 -0 -0 -0 -0 -0 -0 -0 -0 -0 -0 -0 -0 -0 -0 -0 -0 -0 -0 -0 -0 -0 -46 -18 -13 -35 -33 -8 -0 -0 -0 -0 -0 -0 -8 -0 -1 -1 -23
-0 -0 -0 -0 -0 -0 -0 -0 -0 -0 -0 -0 -0 -0 -0 -0 -0 -0 -0 -0 -0 -0 -0 -0 -0 -0 -0 -0 -0 -15 -34 -12 -5 -0 -0 -0 -6 -2 -6 -0 -0 -1 -1 -2 -1 -1 -0
-0 -0 -0 -0 -0 -0 -0 -0 -0 -0 -0 -0 -0 -0 -0 -0 -0 -0 -0 -0 -0 -0 -0 -0 -0 -0 -0 -0 -0 -0 -0 -13 -21 -2 -0 -1 -0 -0 -0 -32 -0 -9 -0 -1 -0 -0 -1
-0 -0 -0 -0 -0 -0 -0 -0 -0 -0 -0 -0 -0 -0 -0 -0 -0 -0 -0 -0 -0 -0 -0 -0 -0 -0 -0 -0 -0 -0 -0 -2 -19 -9 -0 -1 -6 -4 -0 -9 -0 -0 -0 -9 -11 -0 -0
-0 -0 -0 -0 -0 -0 -0 -0 -0 -0 -0 -0 -0 -0 -0 -0 -0 -0 -0 -0 -0 -0 -0 -0 -0 -0 -0 -0 -0 -0 -0 -0 -0 -11 -0 -0 -0 -0 -16 -0 -1 -0 -0 -1 -11 -1 -0
-0 -0 -0 -0 -0 -0 -0 -0 -0 -0 -0 -0 -0 -0 -0 -0 -0 -0 -0 -0 -0 -0 -0 -0 -0 -0 -0 -0 -0 -0 -0 -0 -0 -2 -0 -0 -0 -0 -0 -2 -0 -1 -0 -1 -0 -8 -0
-0 -0 -0 -0 -0 -0 -0 -0 -0 -0 -0 -0 -0 -0 -0 -0 -0 -0 -0 -0 -0 -0 -0 -0 -0 -0 -0 -0 -0 -0 -0 -0 -12 -1 -1 -0 -0 -0 -1 -3 -23 -7 -11 -1 -4 -2 -0
-0 -0 -0 -0 -0 -0 -0 -0 -0 -0 -0 -0 -0 -0 -0 -0 -0 -0 -0 -0 -0 -0 -0 -0 -0 -0 -0 -0 -0 -0 -0 -11 -16 -0 -0 -1 -0 -1 -0 -0 -0 -21 -25 -0 -1 -19 -0
-1 -0 -1 -0 -0 -0 -0 -0 -0 -0 -0 -0 -0 -0 -0 -0 -0 -0 -0 -0 -0 -0 -0 -0 -0 -0 -0 -0 -0 -0 -0 -0 -73 -38 -0 -1 -2 -0 -0 -1 -1 -0 -0 -2 -7 -0 -0
-0 -0 -2 -0 -0 -0 -0 -0 -0 -0 -0 -0 -0 -0 -0 -0 -0 -0 -0 -0 -0 -0 -0 -0 -0 -0 -0 -0 -0 -0 -0 -0 -0 -0 -0 -8 -14 -5 -2 -1 -0 -4 -6 -7 -12 -0 -1
-12 -11 -12 -11 -1 -0 -0 -0 -0 -0 -0 -0 -0 -0 -0 -0 -0 -0 -0 -0 -0 -0 -0 -0 -0 -0 -0 -0 -0 -0 -0 -0 -0 -0 -0 -0 -0 -2 -0 -2 -0 -3 -0 -0 -3 -0 -2
-12 -12 -13 -11 -8 -9 -2 -0 -0 -0 -0 -0 -0 -0 -0 -0 -0 -0 -0 -0 -0 -0 -0 -0 -0 -0 -0 -0 -0 -0 -0 -0 -0 -0 -0 -0 -0 -0 -0 -0 -0 -0 -0 -6 -10 -0 -0
-0 -0 -0 -0 -3 -7 -6 -2 -0 -0 -0 -0 -0 -0 -0 -0 -0 -0 -0 -0 -0 -12 -0 -0 -0 -0 -0 -0 -0 -0 -0 -0 -0 -0 -0 -0 -0 -0 -0 -0 -0 -0 -33 -0 -0 -0 -0
-19 -19 -16 -12 -11 -10 -7 -5 -2 -1 -0 -0 -0 -0 -0 -0 -0 -0 -0 -0 -0 -0 -0 -0 -0 -0 -0 -0 -0 -0 -0 -0 -0 -0 -0 -0 -0 -0 -0 -0 -0 -0 -1 -0 -0 -0 -3
-0 -0 -0 -18 -20 -3 -9 -4 -0 -6 -7 -0 -0 -0 -0 -0 -0 -0 -0 -23 -0 -0 -0 -0 -0 -0 -0 -0 -0 -0 -0 -0 -0 -0 -0 -0 -0 -0 -0 -0 -0 -19 -3 -0 -0 -4 -13
-0 -0 -0 -0 -0 -0 -0 -10 -10 -0 -6 -0 -0 -0 -0 -0 -0 -0 -0 -0 -0 -0 -0 -0 -0 -0 -0 -0 -0 -0 -0 -0 -0 -0 -0 -0 -0 -0 -0 -0 -0 -0 -0 -11 -5 -3 -0
-0 -0 -0 -0 -0 -0 -2 -0 -0 -19 -2 -0 -0 -0 -0 -0 -0 -0 -0 -0 -0 -0 -0 -0 -0 -0 -0 -0 -0 -0 -0 -0 -0 -0 -0 -0 -0 -0 -0 -0 -0 -0 -0 -0 -0 -0 -5
-0 -0 -0 -0 -0 -0 -0 -0 -0 -0 -8 -0 -0 -0 -0 -0 -0 -0 -0 -0 -0 -0 -0 -0 -0 -0 -0 -0 -0 -0 -0 -0 -0 -0 -0 -0 -0 -0 -0 -0 -0 -0 -0 -0 -33 -22 -0
-0 -0 -0 -0 -0 -0 -1 -0 -0 -0 -0 -0 -0 -0 -0 -0 -0 -0 -0 -0 -0 -0 -0 -0 -0 -0 -0 -0 -0 -0 -0 -0 -0 -0 -0 -0 -0 -0 -0 -0 -0 -0 -0 -0 -0 -0 -0
-0 -0 -0 -0 -0 -0 -0 -2 -0 -0 -0 -0 -0 -0 -0 -0 -0 -0 -0 -0 -0 -0 -0 -0 -0 -0 -0 -0 -0 -0 -0 -0 -0 -0 -0 -0 -0 -0 -0 -0 -0 -0 -0 -0 -0 -0 -0
-0 -0 -0 -0 -0 -0 -0 -0 -2 -0 -0 -4 -0 -0 -0 -0 -0 -0 -0 -0 -0 -0 -0 -0 -0 -0 -0 -0 -0 -0 -0 -0 -0 -0 -0 -0 -0 -0 -0 -0 -0 -0 -0 -0 -0 -0 -0
-0 -0 -0 -0 -0 -0 -0 -0 -0 -1 -0 -0 -0 -4 -3 -0 -0 -0 -0 -0 -0 -0 -0 -0 -0 -0 -0 -0 -0 -0 -0 -0 -0 -0 -0 -0 -0 -0 -0 -0 -0 -0 -0 -0 -0 -0 -0
-0 -0 -0 -0 -0 -0 -0 -0 -0 -1 -0 -0 -0 -10 -0 -0 -0 -0 -0 -0 -0 -0 -0 -0 -0 -0 -0 -0 -0 -0 -0 -0 -0 -0 -0 -0 -0 -0 -0 -0 -0 -0 -0 -0 -0 -0 -0
-0 -0 -0 -0 -0 -0 -0 -0 -0 -0 -0 -1 -0 -0 -0 -0 -0 -1 -1 -0 -0 -0 -0 -0 -0 -0 -0 -0 -0 -0 -0 -0 -0 -0 -0 -0 -0 -0 -0 -0 -0 -0 -0 -0 -0 -0 -0
-0 -0 -0 -0 -0 -0 -0 -0 -0 -0 -0 -0 -1 -0 -0 -0 -0 -0 -0 -1 -5 -0 -0 -0 -0 -0 -0 -0 -0 -0 -0 -0 -0 -0 -0 -0 -0 -0 -0 -0 -0 -0 -0 -0 -0 -0 -0
-0 -0 -0 -0 -0 -0 -0 -0 -0 -0 -0 -0 -0 -0 -0 -0 -0 -0 -0 -0 -1 -2 -0 -0 -0 -0 -0 -0 -0 -0 -0 -0 -0 -0 -0 -0 -0 -0 -0 -0 -0 -0 -0 -0 -0 -0 -0
-0 -0 -0 -0 -0 -0 -0 -0 -0 -0 -0 -0 -0 -0 -0 -0 -0 -3 -7 -0 -5 -3 -0 -0 -0 -0 -0 -0 -0 -0 -0 -0 -0 -0 -0 -0 -0 -0 -0 -0 -0 -0 -0 -0 -0 -0 -0
-0 -0 -0 -0 -0 -0 -0 -0 -0 -0 -0 -0 -0 -0 -0 -1 -0 -0 -5 -0 -0 -0 -2 -2 -0 -0 -0 -0 -0 -0 -0 -0 -0 -0 -0 -0 -0 -0 -0 -0 -0 -0 -0 -0 -0 -0 -0
-0 -0 -0 -0 -0 -0 -0 -0 -0 -0 -0 -0 -0 -0 -0 -0 -1 -3 -4 -0 -0 -0 -0 -0 -0 -6 -2 -1 -0 -0 -0 -0 -0 -0 -0 -0 -0 -0 -0 -0 -0 -0 -0 -0 -0 -0 -0
Wind_Speed
13 13 14 14 14 15 15 15 15 15 16 16 15 14 14 14 14 13 13 13 13 13 13 13 12 9 9 10 7 6 7 5 4 4 4 7 9 7 8 4 8 14 3 14 12 4 12
13 13 14 14 15 15 15 16 16 16 16 17 16 15 15 14 14 14 14 14 14 14 13 13 11 7 7 11 3 8 6 4 4 5 2 4 6 7 7 5 7 3 10 7 13 15 11
13 14 14 15 15 15 16 16 17 17 17 17 18 16 15 15 14 15 15 15 15 14 15 11 8 6 7 6 4 6 4 4 4 5 3 1 4 5 3 6 6 5 5 6 13 18 13
13 13 14 15 16 16 16 17 17 17 18 18 19 18 16 15 15 14 15 16 17 13 12 5 6 4 5 1 4 6 4 4 2 3 5 1 2 4 5 7 5 8 5 2 8 17 16
13 14 15 15 16 16 17 17 18 18 19 19 20 19 16 16 17 15 15 16 16 11 4 6 5 5 2 2 2 4 4 6 2 2 4 4 5 7 3 4 1 5 5 10 8 17 14
13 14 14 15 15 16 17 17 18 19 20 21 21 19 18 17 17 16 17 15 1 7 4 5 4 6 4 4 1 1 2 5 4 2 4 7 7 6 6 6 3 4 10 7 10 10 19
13 13 14 15 16 16 17 18 19 19 20 21 21 19 17 17 17 16 11 3 5 6 5 5 7 5 3 1 3 5 2 5 7 6 3 4 7 6 2 2 6 2 7 9 4 5 11
13 13 14 15 15 16 17 17 18 19 20 21 21 20 19 15 15 14 7 3 3 4 6 3 4 5 2 3 4 6 2 5 4 8 4 2 6 5 5 6 7 5 5 8 10 8 9
11 12 12 13 14 16 17 17 18 19 21 21 21 21 20 17 11 3 6 5 5 3 5 2 1 5 2 4 5 1 4 5 8 8 7 5 4 7 6 8 9 10 11 11 2 6 10
12 12 13 14 16 16 17 17 18 20 19 20 21 21 19 17 4 3 3 5 5 4 4 3 3 3 3 3 4 1 4 3 4 7 5 3 2 4 8 10 8 9 2 8 6 5 7
9 10 12 14 15 16 17 18 19 19 19 20 21 21 17 9 4 2 5 5 5 4 3 2 2 3 1 5 6 5 2 4 9 10 5 2 6 5 4 8 5 1 8 9 10 9 5
10 10 10 12 13 14 15 17 19 20 21 21 22 21 15 3 2 2 3 4 3 2 5 0 1 3 5 6 3 0 4 4 4 7 8 9 1 4 3 2 5 10 8 6 7 6 4
16 16 16 16 15 15 15 15 17 20 21 22 23 18 8 3 1 3 3 3 2 3 1 2 2 3 6 4 3 3 4 6 4 5 5 4 7 1 3 5 5 5 7 2 4 4 4
16 16 17 18 19 20 19 16 16 18 21 23 24 12 0 3 2 3 3 3 2 2 3 2 3 8 5 2 4 4 5 7 6 5 8 4 4 6 8 4 5 7 5 4 5 2 4
16 17 17 18 21 19 21 22 18 17 20 23 23 2 3 2 4 4 5 1 3 3 3 5 4 4 3 3 5 4 4 4 2 2 4 5 1 2 3 3 4 4 7 3 5 3 4
16 17 17 18 19 21 23 23 24 21 20 22 8 5 2 1 3 4 4 5 3 2 1 2 4 1 4 2 4 3 2 3 2 1 2 3 6 2 2 3 7 7 3 4 3 5 5
16 16 16 18 19 20 21 22 23 23 24 25 5 5 4 1 2 4 4 6 4 5 6 4 4 4 6 5 4 5 4 3 2 2 3 3 3 3 2 7 5 4 4 6 4 4 6
15 17 18 19 19 20 21 21 22 23 27 10 5 5 4 2 4 3 4 5 1 5 5 5 4 6 5 2 5 5 4 2 2 1 3 1 5 6 8 5 1 4 6 6 8 3 4
14 16 17 18 19 21 21 21 21 24 22 6 5 6 3 3 6 7 4 5 4 7 7 8 7 8 2 4 5 6 4 3 3 2 3 2 4 5 4 5 3 6 6 8 6 4 9
15 17 18 17 17 18 19 22 20 21 22 7 5 5 4 4 4 7 8 10 7 5 5 6 3 5 6 6 10 4 5 3 5 4 2 2 5 8 7 6 4 5 5 7 8 4 7
15 15 15 17 18 18 19 21 22 22 20 4 3 5 4 4 5 11 7 6 8 6 7 9 5 14 9 6 5 8 7 5 6 6 4 4 6 2 11 14 9 12 12 9 12 13 6
13 13 16 16 17 17 18 19 20 22 22 3 3 4 5 11 11 11 10 10 14 9 8 7 12 7 14 11 10 5 6 6 5 7 5 5 4 3 7 0 6 13 14 14 14 15 15
15 17 17 16 17 16 17 17 18 19 15 4 5 2 4 4 11 15 15 16 13 9 11 15 12 10 11 18 14 5 5 1 2 7 9 4 3 2 5 3 10 11 5 12 8 7 12
15 16 17 18 17 17 15 18 17 17 14 4 3 4 5 7 10 15 21 23 17 15 18 17 7 10 1 5 7 2 3 3 6 7 5 7 5 2 5 5 5 3 2 1 9 9 13
16 17 18 18 18 19 16 16 18 17 17 7 4 4 4 10 11 14 16 18 23 21 21 16 14 6 5 5 3 5 5 4 8 5 8 7 7 4 4 5 11 3 3 1 1 3 12
18 18 19 20 20 19 18 17 19 20 19 10 7 7 5 8 13 20 15 15 17 16 20 22 7 4 7 5 5 11 10 6 6 5 1 5 8 7 6 5 5 3 5 5 3 4 3
19 19 20 21 21 21 20 20 20 21 21 12 8 10 6 10 14 13 15 6 9 13 15 15 7 6 9 8 11 12 14 4 9 10 8 6 7 14 10 7 7 9 10 7 3 1 5
21 21 21 21 22 22 22 22 22 23 22 14 10 10 9 10 19 22 23 17 12 8 8 6 2 7 7 10 11 12 11 11 9 8 11 12 11 8 9 8 10 13 8 8 4 4 7
22 22 22 22 23 24 24 24 24 24 24 19 13 10 10 11 10 15 22 22 22 23 12 7 10 17 6 9 9 8 8 5 12 10 7 9 8 7 11 7 3 18 3 4 6 7 8
Wind_Direction
37 32 29 26 24 21 15 15 11 7 5 2 353 340 333 326 318 316 315 313 312 312 314 311 308 313 299 301 24 13 330 349 298 294 311 298 274 255 252 250 226 235 254 245 236 237 269
32 27 25 19 19 16 13 10 7 3 2 360 354 344 334 326 320 313 310 307 306 308 309 308 298 305 279 313 339 3 330 307 332 306 335 332 345 326 289 255 246 276 192 249 261 222 248
25 25 17 15 17 13 10 7 4 360 359 358 354 344 333 327 322 316 309 304 301 305 305 302 276 262 269 335 0 353 321 330 332 328 303 107 359 253 343 262 225 237 205 235 255 233 227
27 20 20 15 12 11 10 7 3 360 358 356 353 345 335 326 322 319 311 304 299 299 296 283 232 246 291 80 343 311 317 302 5 306 303 233 193 258 255 291 234 204 211 226 252 222 216
25 23 19 17 13 13 7 6 3 358 355 354 352 346 339 328 323 318 311 304 292 285 247 166 206 261 293 143 271 48 312 324 332 250 268 226 252 254 145 223 303 222 235 204 247 202 209
27 21 16 14 12 9 7 3 1 358 353 350 352 350 341 329 326 320 314 302 105 172 187 205 259 244 155 344 346 199 214 302 303 282 237 229 239 255 218 216 266 193 231 219 228 191 211
20 20 14 12 9 7 5 2 357 355 351 348 348 349 341 331 326 324 316 232 213 187 206 278 323 293 327 6 214 201 211 268 246 246 281 269 282 261 286 330 336 229 259 265 260 188 224
17 19 10 4 3 3 2 1 356 351 350 345 343 343 339 331 326 320 284 350 36 358 298 217 275 274 277 286 285 208 210 259 249 308 316 270 266 289 306 270 248 253 275 260 257 250 220
16 22 8 10 8 4 360 356 355 352 347 342 339 341 338 329 322 310 17 27 333 301 261 181 222 280 298 218 291 318 203 312 286 291 327 298 313 275 251 255 237 238 252 272 288 200 232
26 26 13 5 358 358 355 354 353 349 344 339 337 339 337 323 295 350 56 354 316 313 273 169 178 142 187 260 242 88 210 299 255 299 326 295 89 268 276 265 230 288 336 272 269 254 238
351 348 346 347 344 346 347 347 347 344 343 340 337 337 333 349 327 352 350 327 320 254 330 154 154 91 209 247 333 150 158 213 277 308 270 62 224 224 237 271 254 299 333 282 257 262 304
328 325 329 328 328 332 336 339 340 342 340 340 336 335 319 242 218 37 319 307 259 267 263 313 273 267 264 194 208 220 225 217 280 290 247 283 355 255 307 240 240 314 289 240 241 255 242
21 12 359 344 336 333 330 334 339 341 338 337 336 333 304 287 8 326 292 235 302 251 104 283 302 299 305 257 260 235 259 242 283 306 266 186 223 170 268 266 205 245 47 257 225 195 302
18 13 8 6 2 358 347 333 336 340 335 334 331 322 286 335 284 258 236 221 265 339 275 75 285 288 263 334 198 266 268 267 189 254 290 292 241 199 156 233 330 232 232 288 314 328 172
19 11 6 5 5 356 354 352 340 338 336 333 317 276 252 149 278 264 257 280 279 351 2 311 278 269 218 222 285 286 233 296 358 325 299 320 174 145 231 269 243 136 236 347 297 225 264
16 10 4 3 0 2 360 358 0 345 335 333 321 297 216 34 288 254 266 240 232 152 184 271 279 251 299 341 277 261 276 104 160 217 310 11 291 168 97 289 233 257 359 261 223 290 297
5 359 357 4 2 359 357 355 356 355 342 322 280 297 87 151 258 239 236 243 233 183 179 198 293 283 258 302 274 290 299 137 179 164 235 298 238 133 205 209 295 198 238 231 299 260 302
3 7 9 4 1 354 356 353 357 356 351 324 297 262 110 192 258 227 237 212 145 192 180 200 235 260 257 269 267 263 266 285 125 243 245 106 303 274 243 109 251 269 284 301 272 268 254
3 6 2 358 358 357 354 352 356 357 357 317 291 279 123 234 247 222 208 246 236 194 207 182 212 217 199 248 260 235 260 104 177 259 319 121 222 289 185 187 182 248 221 254 278 286 271
6 1 360 355 355 352 347 354 352 351 355 335 290 283 181 214 273 283 262 251 231 207 230 221 230 188 191 229 226 261 241 175 177 218 69 289 269 256 276 332 318 250 231 226 237 255 278
353 355 356 354 356 348 351 349 352 350 349 326 232 270 17 253 239 253 267 289 224 208 225 208 215 225 198 229 211 234 221 208 194 161 190 244 274 288 273 274 264 268 269 234 220 239 264
341 344 341 344 347 353 350 345 347 347 344 254 285 314 300 282 287 273 250 253 262 255 189 219 234 222 220 231 227 219 213 209 200 172 212 183 268 301 284 35 254 261 259 250 244 247 262
330 337 335 334 340 344 343 341 341 342 350 317 9 352 295 277 272 270 256 253 266 280 238 249 233 251 226 238 256 287 277 10 256 179 193 206 249 269 271 341 306 270 294 227 229 241 234
325 326 325 328 329 330 336 329 333 329 332 302 306 292 269 272 264 264 265 273 274 269 278 296 254 243 62 108 91 122 232 248 227 220 236 180 192 236 281 298 246 77 97 292 259 254 231
320 320 320 320 320 319 321 321 320 317 313 296 278 271 275 275 280 279 283 277 282 275 270 268 268 295 171 167 246 233 201 228 216 227 219 242 195 214 246 246 293 179 159 187 293 352 222
314 314 313 312 312 310 312 314 309 310 304 298 284 274 259 290 253 266 279 296 275 265 265 262 224 247 202 239 228 237 232 214 186 174 194 211 261 242 165 212 243 132 165 188 192 251 6
303 304 306 305 306 304 305 306 303 302 297 286 280 283 270 271 265 258 270 298 301 269 267 266 238 197 207 213 234 239 242 209 194 183 175 178 194 218 226 228 254 157 159 162 200 119 160
302 302 301 302 303 302 301 299 295 300 295 281 279 272 261 265 266 268 268 255 280 275 288 327 226 207 197 230 237 226 245 217 238 178 176 175 169 192 204 222 248 147 121 200 106 112 158
295 295 298 299 300 302 298 294 292 295 291 288 279 268 252 251 275 303 279 269 267 252 257 253 304 309 244 227 226 232 234 222 224 227 190 208 207 179 204 205 103 164 55 137 151 149 166